TimeCET,TemperatureF,Dew PointF,Humidity,Sea Level PressureIn,VisibilityMPH,Wind Direction,Wind SpeedMPH,Gust SpeedMPH,PrecipitationIn,Events,Conditions,WindDirDegrees,DateUTC
12:25 AM,48.2,41.0,76,30.21,6.2,SW,20.7,-,N/A,,Overcast,230,2012-11-07 23:25:00
12:55 AM,48.2,41.0,76,30.21,6.2,SW,19.6,-,N/A,,Overcast,230,2012-11-07 23:55:00
1:00 AM,48,41,70,30.25,12,SW,20.1,,,,Partly Cloudy,230,2012-11-08 00:00:00
1:25 AM,48.2,41.0,76,30.21,6.2,SW,18.4,-,N/A,,Overcast,220,2012-11-08 00:25:00
1:55 AM,48.2,41.0,76,30.21,6.2,SW,18.4,-,N/A,,Overcast,220,2012-11-08 00:55:00
2:25 AM,48.2,41.0,76,30.21,6.2,SW,17.3,-,N/A,,Overcast,220,2012-11-08 01:25:00
2:55 AM,48.2,41.0,76,30.18,6.2,SW,19.6,-,N/A,,Overcast,220,2012-11-08 01:55:00
3:25 AM,48.2,41.0,76,30.18,6.2,SW,18.4,-,N/A,,Overcast,220,2012-11-08 02:25:00
3:55 AM,48.2,41.0,76,30.15,6.2,SW,18.4,-,N/A,,Overcast,220,2012-11-08 02:55:00
4:00 AM,48,41,69,30.19,12,SW,17.9,,,,Overcast,220,2012-11-08 03:00:00
4:25 AM,48.2,41.0,76,30.15,6.2,SW,18.4,-,N/A,,Overcast,220,2012-11-08 03:25:00
4:55 AM,48.2,41.0,76,30.15,6.2,SW,18.4,-,N/A,,Overcast,220,2012-11-08 03:55:00
5:25 AM,48.2,41.0,76,30.15,6.2,SW,19.6,-,N/A,,Overcast,220,2012-11-08 04:25:00
5:55 AM,48.2,41.0,76,30.12,6.2,SW,19.6,-,N/A,,Overcast,220,2012-11-08 04:55:00
6:25 AM,48.2,41.0,76,30.12,6.2,SW,18.4,-,N/A,,Overcast,230,2012-11-08 05:25:00
6:55 AM,48.2,41.0,76,30.12,6.2,SW,18.4,-,N/A,,Overcast,220,2012-11-08 05:55:00
7:25 AM,48.2,41.0,76,30.12,6.2,SW,18.4,-,N/A,,Overcast,220,2012-11-08 06:25:00
7:55 AM,48.2,41.0,76,30.12,6.2,SW,16.1,-,N/A,,Overcast,220,2012-11-08 06:55:00
8:25 AM,48.2,41.0,76,30.12,6.2,SW,18.4,-,N/A,,Overcast,230,2012-11-08 07:25:00
8:55 AM,48.2,41.0,76,30.12,6.2,SW,18.4,-,N/A,,Overcast,220,2012-11-08 07:55:00
9:25 AM,48.2,41.0,76,30.12,6.2,SW,18.4,-,N/A,,Overcast,220,2012-11-08 08:25:00
9:55 AM,48.2,41.0,76,30.12,6.2,SW,17.3,-,N/A,,Overcast,230,2012-11-08 08:55:00
10:00 AM,48,42,72,30.14,15,SW,17.9,,,,Overcast,220,2012-11-08 09:00:00
10:25 AM,48.2,41.0,76,30.12,6.2,SW,16.1,-,N/A,,Overcast,230,2012-11-08 09:25:00
10:55 AM,48.2,41.0,76,30.12,6.2,SW,17.3,-,N/A,,Overcast,220,2012-11-08 09:55:00
11:25 AM,48.2,41.0,76,30.12,6.2,SW,13.8,-,N/A,,Overcast,230,2012-11-08 10:25:00
11:55 AM,48.2,42.8,82,30.09,6.2,SW,15.0,-,N/A,,Overcast,230,2012-11-08 10:55:00
12:25 PM,48.2,42.8,82,30.09,6.2,SW,13.8,-,N/A,,Overcast,230,2012-11-08 11:25:00
12:55 PM,48.2,42.8,82,30.09,6.2,SW,16.1,-,N/A,,Overcast,230,2012-11-08 11:55:00
1:00 PM,49,42,69,30.12,15,SW,15.7,,,,Partly Cloudy,230,2012-11-08 12:00:00
1:25 PM,48.2,42.8,82,30.09,6.2,SW,16.1,-,N/A,,Overcast,230,2012-11-08 12:25:00
1:55 PM,48.2,42.8,82,30.06,6.2,SW,13.8,-,N/A,,Overcast,230,2012-11-08 12:55:00
2:25 PM,48.2,42.8,82,30.06,4.3,WSW,13.8,-,N/A,,Overcast,240,2012-11-08 13:25:00
2:55 PM,48.2,42.8,82,30.06,6.2,SW,13.8,-,N/A,,Overcast,230,2012-11-08 13:55:00
3:25 PM,48.2,42.8,82,30.06,6.2,SW,17.3,-,N/A,,Overcast,230,2012-11-08 14:25:00
3:55 PM,48.2,42.8,82,30.06,6.2,SW,18.4,-,N/A,,Overcast,230,2012-11-08 14:55:00
4:00 PM,48,42,75,30.09,14,SW,17.9,,,,Overcast,230,2012-11-08 15:00:00
4:25 PM,48.2,42.8,82,30.06,6.2,SW,15.0,-,N/A,,Overcast,230,2012-11-08 15:25:00
4:55 PM,48.2,42.8,82,30.06,6.2,SW,13.8,-,N/A,,Overcast,230,2012-11-08 15:55:00
5:25 PM,48.2,42.8,82,30.06,6.2,SW,11.5,-,N/A,,Overcast,230,2012-11-08 16:25:00
5:55 PM,46.4,42.8,87,30.06,6.2,SW,12.7,-,N/A,,Overcast,230,2012-11-08 16:55:00
6:25 PM,46.4,42.8,87,30.06,6.2,SW,13.8,-,N/A,,Overcast,220,2012-11-08 17:25:00
6:55 PM,46.4,42.8,87,30.06,6.2,SW,13.8,-,N/A,,Overcast,220,2012-11-08 17:55:00
7:00 PM,47,43,81,30.09,11,SW,15.7,,,,Partly Cloudy,220,2012-11-08 18:00:00
7:25 PM,46.4,42.8,87,30.06,6.2,SW,16.1,-,N/A,,Overcast,220,2012-11-08 18:25:00
7:55 PM,46.4,42.8,87,30.06,6.2,SW,15.0,-,N/A,,Overcast,220,2012-11-08 18:55:00
8:25 PM,46.4,42.8,87,30.06,6.2,SW,12.7,-,N/A,,Overcast,230,2012-11-08 19:25:00
8:55 PM,46.4,42.8,87,30.06,6.2,SW,11.5,-,N/A,,Overcast,230,2012-11-08 19:55:00
9:25 PM,46.4,42.8,87,30.06,6.2,SW,11.5,-,N/A,,Overcast,230,2012-11-08 20:25:00
9:55 PM,46.4,42.8,87,30.06,6.2,SW,10.4,-,N/A,,Overcast,230,2012-11-08 20:55:00
10:00 PM,47,43,81,30.10,9,SW,11.2,,,,Overcast,230,2012-11-08 21:00:00
10:25 PM,46.4,42.8,87,30.06,6.2,SW,10.4,-,N/A,,Overcast,220,2012-11-08 21:25:00
10:55 PM,46.4,42.8,87,30.06,6.2,SW,10.4,-,N/A,,Overcast,220,2012-11-08 21:55:00
11:25 PM,46.4,44.6,93,30.06,6.2,SW,10.4,-,N/A,,Overcast,230,2012-11-08 22:25:00
11:55 PM,46.4,44.6,93,30.06,6.2,SW,10.4,-,N/A,,Overcast,230,2012-11-08 22:55:00